TimeCST,TemperatureF,Dew PointF,Humidity,Sea Level PressureIn,VisibilityMPH,Wind Direction,Wind SpeedMPH,Gust SpeedMPH,PrecipitationIn,Events,Conditions,WindDirDegrees,DateUTC
12:32 AM,71.6,69.8,94,30.01,10.0,SSE,11.5,-,N/A,,Overcast,150,2013-01-28 06:32:00
12:52 AM,71.1,69.1,93,30.01,10.0,SSE,12.7,-,N/A,,Overcast,160,2013-01-28 06:52:00
1:39 AM,71.6,69.8,94,30.01,10.0,SSE,16.1,-,N/A,,Overcast,160,2013-01-28 07:39:00
1:52 AM,71.1,69.1,93,30.01,10.0,SSE,15.0,21.9,N/A,,Overcast,160,2013-01-28 07:52:00
2:14 AM,71.6,69.8,94,30.01,10.0,SSE,17.3,23.0,N/A,,Overcast,150,2013-01-28 08:14:00
2:52 AM,72.0,68.0,87,30.01,10.0,SSE,19.6,-,N/A,,Overcast,150,2013-01-28 08:52:00
3:52 AM,71.1,66.9,87,30.00,10.0,SSE,15.0,-,N/A,,Overcast,160,2013-01-28 09:52:00
4:15 AM,71.6,66.2,83,29.99,10.0,SSE,16.1,-,N/A,,Overcast,150,2013-01-28 10:15:00
4:52 AM,71.1,66.9,87,29.99,10.0,SSE,17.3,-,N/A,,Overcast,160,2013-01-28 10:52:00
5:52 AM,70.0,66.9,90,29.99,10.0,SSE,15.0,-,N/A,,Overcast,160,2013-01-28 11:52:00
6:52 AM,70.0,66.9,90,30.00,10.0,SSE,18.4,-,N/A,,Overcast,160,2013-01-28 12:52:00
7:50 AM,71.6,66.2,83,30.01,10.0,SSE,18.4,-,N/A,,Mostly Cloudy,160,2013-01-28 13:50:00
7:52 AM,71.1,66.9,87,30.01,10.0,SSE,16.1,-,N/A,,Scattered Clouds,160,2013-01-28 13:52:00
8:52 AM,73.0,66.9,81,30.02,10.0,SSE,19.6,-,N/A,,Scattered Clouds,150,2013-01-28 14:52:00
8:59 AM,73.4,66.2,78,30.02,10.0,SSE,23.0,28.8,N/A,,Mostly Cloudy,150,2013-01-28 14:59:00
9:08 AM,75.2,66.2,73,30.02,10.0,SSE,21.9,31.1,N/A,,Scattered Clouds,160,2013-01-28 15:08:00
9:52 AM,77.0,66.9,71,30.03,10.0,SSE,25.3,35.7,N/A,,Scattered Clouds,160,2013-01-28 15:52:00
10:52 AM,81.0,66.0,60,30.02,10.0,SSE,28.8,34.5,N/A,,Scattered Clouds,150,2013-01-28 16:52:00
11:52 AM,82.9,66.0,56,30.00,10.0,SSE,27.6,36.8,N/A,,Scattered Clouds,160,2013-01-28 17:52:00
12:52 PM,82.9,64.9,54,29.97,10.0,South,29.9,35.7,N/A,,Mostly Cloudy,170,2013-01-28 18:52:00
1:52 PM,82.9,66.0,56,29.94,10.0,South,20.7,35.7,N/A,,Overcast,170,2013-01-28 19:52:00
2:52 PM,82.0,66.0,58,29.92,10.0,SSE,26.5,35.7,N/A,,Mostly Cloudy,160,2013-01-28 20:52:00
3:52 PM,82.0,66.9,60,29.91,10.0,South,21.9,31.1,N/A,,Mostly Cloudy,170,2013-01-28 21:52:00
4:52 PM,79.0,68.0,69,29.90,10.0,SSE,23.0,32.2,N/A,,Mostly Cloudy,160,2013-01-28 22:52:00
5:44 PM,77.0,68.0,74,29.90,10.0,SSE,23.0,32.2,N/A,,Mostly Cloudy,160,2013-01-28 23:44:00
5:52 PM,75.9,68.0,76,29.90,10.0,SSE,24.2,33.4,N/A,,Mostly Cloudy,160,2013-01-28 23:52:00
6:43 PM,73.4,68.0,83,29.90,10.0,SSE,23.0,29.9,N/A,,Scattered Clouds,160,2013-01-29 00:43:00
6:52 PM,75.0,68.0,79,29.90,10.0,SSE,23.0,29.9,N/A,,Partly Cloudy,160,2013-01-29 00:52:00
7:13 PM,73.4,68.0,83,29.90,10.0,SSE,21.9,33.4,N/A,,Mostly Cloudy,160,2013-01-29 01:13:00
7:52 PM,73.0,69.1,87,29.91,10.0,SSE,25.3,32.2,N/A,,Overcast,160,2013-01-29 01:52:00
8:52 PM,73.9,69.1,85,29.91,10.0,SSE,21.9,28.8,N/A,,Overcast,160,2013-01-29 02:52:00
9:52 PM,73.0,69.1,87,29.91,10.0,SSE,24.2,31.1,N/A,,Overcast,160,2013-01-29 03:52:00
10:52 PM,73.9,69.1,85,29.90,10.0,SSE,26.5,33.4,N/A,,Overcast,160,2013-01-29 04:52:00
11:52 PM,73.9,69.1,85,29.90,10.0,South,25.3,32.2,N/A,,Overcast,170,2013-01-29 05:52:00